Погода в Наро-Фоминске

Россия / Московская область     55°23′10″N   36°44′04″E
темп.,
°C
ветер,
м/с
пор.,
м/с
влажн.,
%
обл.,
%
осадки,
мм/ч
давл.,
гПа
погр.,
м
24 июля, сб
сб2400:00+14ссз267297 0.0 1010188
03:00+13сз2470100 0.0 101198
06:00+13сз2578100 0.0 1011226
09:00+14ссз3669100 0.0 1013440
12:00+20сз453775 0.0 10132432
15:00+20с4537100 0.0 10142298
18:00+19с25462 0.0 10161789
21:00+13вюв116713 0.0 101711
25 июля, вс
вс2500:00+14ю116096 0.0 101919
03:00+14юз2260100 0.0 102039
06:00+13юз2364100 0.0 102180
09:00+16зюз2458100 0.0 1021291
12:00+20зюз234396 0.0 10221012
15:00+22з243595 0.0 10212491
18:00+19юз1157100 0.0 102211
21:00+17зсз115879 0.0 102211
26 июля, пн
пн2600:00+13ююв11691 0.0 102310
03:00+13юз117092 0.0 102412
06:00+16юз246541 0.0 102492
09:00+22зюз234733 0.0 1024595
12:00+24зюз333728 0.0 10242140
15:00+25зюз33398 0.0 10241991
18:00+22зюз475330 0.0 1023492
21:00+17з12707 0.0 102311
27 июля, вт
вт2700:00+16юз227289 0.0 102430
03:00+15зюз22838 0.0 102415
06:00+16з238346 0.0 102470
09:00+22зюз23575 0.0 1024495
12:00+27зюз22405 0.0 10232023
15:00+25юз1247100 0.0 1021645
18:00+25зсз125176 0.0 1021293
21:00+20зюз11666 0.0 102114
28 июля, ср
ср2800:00+17зюз22794 0.0 102122
03:00+16ююз23853 0.0 102058
06:00+16юз25843 0.0 1020122
09:00+24юз34574 0.0 1018515
12:00+27юз344222 0.0 10162349
15:00+24зюз2551100 0.0 1015218
18:00+26юз2545100 0.0 1013444
21:00+21ю2460100 0.0 101276